Temperature
17 17 17 17 17 17 17 17 17 17 17 17 18 18 18 17 17 17 17 17 17 16 16 16 16 16 16 16 16 15 15 15 15 15 15 15 15 14
17 17 17 17 17 17 17 17 17 17 17 17 17 17 17 17 17 17 17 17 17 17 16 16 16 16 16 16 16 15 15 15 15 15 15 15 15 15
17 17 17 17 17 17 17 17 16 16 16 17 17 17 17 17 17 17 17 17 17 17 16 16 16 16 16 16 16 15 15 15 15 15 15 15 15 15
17 17 17 17 17 17 17 16 16 16 16 16 16 17 16 16 17 17 17 17 17 17 16 16 16 16 16 16 16 16 15 15 15 15 15 15 15 15
17 17 16 16 16 16 16 16 16 16 16 16 16 16 16 16 16 16 16 16 16 16 16 16 16 16 16 16 15 15 15 15 15 15 15 15 14 14
16 16 16 16 16 16 16 16 16 16 16 16 16 16 16 16 16 16 16 16 16 16 16 16 16 16 16 15 15 15 15 15 15 15 15 14 14 14
16 16 16 16 16 16 16 16 16 15 15 15 15 15 16 16 16 16 16 16 16 16 16 16 16 15 15 15 15 15 15 15 15 15 14 14 14 14
16 16 16 16 16 16 16 15 15 15 15 15 15 15 15 15 15 15 15 15 15 15 15 15 15 15 15 15 15 15 14 14 14 14 14 14 14 13
15 15 15 15 15 15 15 15 15 15 15 15 15 15 15 15 15 15 15 15 15 15 14 15 15 15 14 14 14 14 14 14 14 14 13 13 13 13
15 15 15 15 15 15 15 15 15 15 14 14 14 14 14 14 14 14 14 14 14 14 14 14 14 14 14 14 14 14 13 13 13 13 13 13 12 12
14 14 14 15 15 14 15 14 14 14 14 14 14 14 14 14 14 14 14 13 13 13 13 13 13 13 13 13 13 13 13 13 13 12 12 12 12 12
14 14 14 14 14 14 14 14 14 14 14 14 14 13 13 13 13 13 13 13 12 12 12 12 12 12 12 12 12 12 12 12 12 12 11 11 11 11
14 13 13 13 13 13 13 13 13 13 13 13 13 13 13 13 13 12 12 12 12 12 12 12 11 11 11 11 11 11 11 11 11 11 11 11 11 10
13 13 12 12 13 12 12 12 12 12 12 12 12 12 12 12 12 11 11 11 11 11 11 11 11 11 10 10 10 10 10 10 10 10 10 10 10 10
12 12 12 12 12 12 12 11 12 12 12 11 11 11 11 11 11 11 11 11 10 10 10 10 10 10 10 10 10 10 9 9 9 9 9 9 9 9
11 11 11 11 11 11 11 11 11 11 11 11 10 10 10 10 10 10 10 10 10 10 10 9 9 9 9 9 9 9 9 9 9 9 9 9 9 9
11 11 11 11 11 10 10 10 10 10 10 10 10 10 10 10 9 9 9 9 9 9 9 9 9 8 8 8 8 8 8 8 8 8 8 8 8 8
11 10 10 10 9 9 9 9 9 9 9 9 9 9 9 9 9 8 8 8 8 8 8 8 8 8 8 8 7 7 7 7 7 7 7 7 7 7
10 9 9 9 8 8 8 8 8 8 8 8 8 8 8 8 8 7 7 7 7 7 7 7 7 7 6 6 7 7 7 6 7 7 7 7 7 7
9 8 8 8 8 8 7 7 7 7 7 7 7 7 7 7 7 7 6 6 6 6 6 6 6 6 6 6 6 6 6 6 6 6 6 6 6 6
8 8 7 7 7 7 7 7 7 7 6 6 6 6 6 6 6 6 6 6 6 6 5 5 5 5 5 5 5 5 5 6 5 5 5 5 5 5
7 7 7 7 7 6 6 6 6 6 6 5 5 5 5 5 5 5 5 5 5 5 5 5 5 5 5 5 5 5 5 5 5 5 5 4 4 4
6 6 6 6 6 6 6 6 5 5 5 5 5 5 5 5 5 5 5 4 4 4 4 4 4 5 5 4 4 4 4 4 4 4 4 4 4 4
Wind_Speed
8 9 8 7 6 7 6 5 5 5 6 4 3 3 7 9 12 12 13 14 16 17 17 17 18 18 18 18 18 17 17 17 17 17 16 16 15 15
7 8 8 7 6 6 6 6 6 6 6 4 4 3 4 6 9 11 11 13 14 16 17 17 17 17 17 17 17 17 17 17 17 16 16 16 15 15
8 9 10 8 7 7 6 6 6 6 7 6 3 3 3 5 5 7 9 9 9 13 15 15 16 16 16 17 17 17 17 17 17 16 16 16 15 15
9 9 10 8 8 7 6 7 7 7 7 7 4 4 5 5 4 4 5 7 8 10 13 14 15 15 15 16 16 16 16 16 16 16 15 15 15 15
8 9 9 8 8 7 7 7 6 6 6 6 6 4 4 3 3 3 4 4 6 7 9 11 13 13 14 14 14 15 15 16 16 16 16 15 15 15
6 7 7 7 8 7 7 7 6 5 5 6 6 5 4 3 2 3 3 3 4 4 5 7 8 10 11 12 13 14 14 15 16 16 15 15 14 14
5 5 5 6 7 6 6 5 5 5 4 5 6 4 4 3 3 3 4 3 3 3 3 3 3 4 6 9 11 12 13 14 15 15 14 14 14 14
4 3 3 3 4 4 5 5 5 5 5 5 5 5 5 5 4 4 4 3 4 2 3 3 2 4 4 5 8 11 12 13 13 14 14 14 14 14
2 2 1 1 1 1 1 2 2 4 6 6 5 6 5 5 4 5 4 4 4 2 2 3 2 4 4 5 7 9 9 10 11 12 12 13 13 13
1 1 0 1 1 1 0 0 1 2 3 3 4 5 4 3 4 4 4 3 2 1 2 3 2 3 3 4 6 7 8 8 9 10 10 11 11 12
3 3 3 2 3 2 2 1 1 2 3 1 0 2 2 2 1 1 1 2 3 2 1 2 2 2 2 3 3 4 6 7 7 8 8 9 9 9
3 4 6 5 5 5 3 2 2 2 2 3 3 4 3 3 2 1 2 2 2 2 1 1 2 1 2 2 2 3 3 4 5 6 7 7 6 5
3 3 4 7 7 7 6 4 2 2 2 3 3 4 4 4 3 2 1 1 2 2 1 1 1 1 2 2 2 2 2 3 3 4 5 5 5 4
3 4 5 8 8 7 6 6 6 5 4 4 4 5 4 4 4 4 3 2 1 1 2 1 1 2 2 3 3 2 2 3 2 2 2 3 3 5
5 7 8 8 8 7 9 8 7 5 5 5 4 4 3 4 4 3 4 3 3 4 4 3 2 2 3 4 3 3 2 3 2 2 3 2 2 2
6 8 10 10 9 9 9 8 7 6 5 4 4 4 4 4 4 4 3 3 3 3 5 5 4 2 3 3 3 3 3 2 2 3 3 3 3 3
6 7 8 7 8 8 7 7 6 6 6 5 5 5 5 5 5 4 4 3 3 3 4 4 5 3 2 2 2 3 3 3 3 3 3 3 3 3
8 8 8 7 7 6 6 6 6 6 6 5 5 5 5 5 5 5 4 4 4 4 4 5 4 4 3 2 1 3 3 4 4 4 3 4 4 3
10 8 7 6 6 6 6 5 5 5 5 5 5 5 5 5 5 5 5 5 4 5 5 4 4 4 4 5 3 3 4 4 4 4 4 4 4 4
7 7 6 6 5 5 5 5 5 5 5 5 5 5 5 5 5 5 5 5 5 5 5 5 5 4 4 4 4 5 6 4 4 4 5 4 4 4
6 6 5 5 5 5 5 5 5 5 5 5 5 5 5 5 5 5 5 6 5 5 5 6 6 7 4 3 3 4 5 6 5 4 4 4 4 4
6 6 5 5 5 5 4 4 5 5 5 5 5 5 5 4 5 5 5 5 4 4 5 5 6 5 4 4 4 5 6 6 7 6 5 4 4 3
5 5 5 5 5 5 4 5 5 5 4 4 4 4 4 4 4 4 4 4 5 5 5 5 5 5 4 4 4 5 6 6 5 5 5 7 5 4
Wind_Direction
225 223 224 227 219 218 210 201 207 242 260 252 252 247 237 236 239 233 231 234 233 235 237 238 239 239 238 239 239 240 242 242 242 242 243 244 245 247
224 226 228 227 223 218 215 214 211 219 247 249 240 251 251 252 243 234 237 237 235 233 234 237 239 238 238 239 238 239 240 240 240 241 243 244 245 247
229 228 232 225 221 219 213 214 217 215 239 259 244 252 248 254 253 238 240 236 238 234 234 235 237 237 238 238 238 238 238 238 239 240 241 242 244 245
231 228 233 228 222 219 214 218 220 215 225 250 256 245 245 247 243 240 241 236 235 237 234 235 235 235 236 238 238 237 238 239 239 240 241 242 242 242
232 229 231 224 228 225 219 222 224 222 222 237 254 246 249 249 242 247 241 239 239 239 237 237 235 235 236 237 238 237 237 238 238 238 239 241 242 242
237 234 232 226 228 227 225 223 221 221 222 235 249 251 248 241 223 237 250 239 246 248 240 236 235 234 235 237 239 240 239 239 238 239 240 242 242 243
244 242 241 231 226 223 225 221 216 220 226 236 247 250 248 230 230 225 241 249 248 233 236 239 228 232 236 238 240 241 239 238 237 237 238 239 241 242
242 250 249 242 232 221 220 220 212 220 232 239 247 249 256 244 236 226 232 237 251 221 217 243 219 240 246 240 240 236 235 234 234 235 237 239 239 241
246 253 253 279 259 234 232 237 242 244 234 232 243 251 255 253 238 236 227 226 239 228 202 247 236 245 257 254 245 242 239 236 236 236 237 238 239 242
34 4 1 354 352 352 50 50 337 306 265 235 236 251 256 258 239 237 236 231 239 244 201 242 251 255 270 266 258 251 250 244 240 238 240 242 243 244
46 45 45 37 26 57 84 57 5 356 24 43 294 307 328 323 249 215 224 230 259 259 206 232 258 264 268 267 275 262 252 250 251 248 248 249 248 246
52 47 47 46 42 54 69 69 24 351 4 14 21 14 11 12 32 222 233 238 249 261 237 219 253 257 278 276 286 295 284 277 269 264 260 254 245 236
59 49 44 50 53 51 55 54 29 10 29 38 31 26 28 20 12 9 342 236 235 246 266 206 238 236 237 269 293 308 316 315 305 289 278 263 248 230
69 61 59 60 58 52 52 47 42 45 49 47 44 31 22 14 6 8 14 22 339 288 315 261 244 242 247 261 275 305 318 317 306 301 310 288 263 250
73 69 63 60 57 52 47 45 46 50 52 49 38 22 7 0 4 4 10 22 29 16 5 350 305 273 253 252 264 273 292 300 299 298 300 297 285 284
71 63 60 61 60 52 44 43 45 46 48 42 27 16 12 20 21 13 9 7 12 4 5 1 342 305 272 269 265 276 283 285 302 302 295 293 289 273
78 66 56 51 49 45 43 40 38 38 37 29 27 24 22 23 19 14 14 13 11 355 352 355 356 351 326 298 298 306 307 304 300 299 294 293 292 292
72 65 58 53 49 43 39 35 33 30 27 26 27 24 22 20 17 14 16 15 6 356 351 348 350 354 351 357 324 304 312 314 313 307 299 292 295 307
66 62 55 49 44 41 38 35 29 23 24 30 31 24 20 19 20 18 16 12 6 358 351 349 354 353 341 334 344 346 324 323 322 320 315 307 301 308
60 60 55 48 43 38 34 31 27 25 25 25 24 20 16 16 17 15 13 10 4 0 359 2 1 351 332 319 318 326 332 317 317 320 323 322 319 315
56 53 49 46 42 37 32 29 29 26 22 21 19 16 13 14 14 11 10 9 9 7 4 356 341 330 318 320 324 331 339 342 327 310 316 320 321 318
57 53 46 44 40 36 32 30 31 30 23 19 12 9 6 9 11 10 8 4 2 359 349 342 340 346 349 341 335 332 337 346 353 352 331 306 306 305
53 49 43 38 34 29 29 31 31 25 18 9 3 2 3 2 357 359 359 357 353 351 348 347 350 353 347 341 338 338 341 343 343 349 353 356 343 327
Height
1556 1557 1558 1559 1560 1561 1562 1563 1563 1562 1561 1562 1563 1563 1563 1563 1564 1564 1564 1565 1565 1565 1566 1566 1567 1567 1568 1568 1569 1569 1570 1570 1571 1571 1572 1572 1573 1573
1550 1551 1552 1553 1554 1555 1556 1557 1558 1558 1557 1557 1558 1558 1559 1559 1559 1559 1559 1560 1560 1561 1561 1562 1562 1563 1563 1563 1564 1564 1565 1565 1566 1566 1567 1567 1567 1568
1545 1546 1547 1548 1549 1550 1551 1552 1552 1553 1552 1552 1553 1553 1553 1554 1554 1554 1555 1555 1555 1556 1556 1557 1557 1558 1558 1558 1559 1559 1560 1560 1560 1561 1561 1562 1562 1562
1540 1541 1541 1543 1543 1544 1545 1546 1547 1548 1548 1547 1547 1548 1548 1548 1549 1549 1549 1550 1550 1551 1551 1552 1552 1553 1553 1553 1553 1554 1554 1554 1555 1555 1556 1556 1556 1556
1535 1536 1537 1538 1538 1539 1540 1541 1541 1542 1543 1542 1542 1542 1542 1543 1543 1544 1544 1544 1545 1545 1546 1547 1547 1547 1547 1548 1548 1548 1548 1549 1549 1549 1550 1550 1550 1551
1531 1531 1532 1533 1533 1534 1535 1535 1536 1536 1537 1537 1537 1537 1537 1538 1538 1538 1538 1539 1539 1540 1541 1541 1542 1542 1542 1542 1543 1543 1543 1543 1543 1543 1543 1544 1544 1544
1526 1527 1527 1528 1529 1529 1530 1530 1531 1531 1532 1532 1532 1532 1532 1532 1532 1533 1533 1533 1534 1535 1535 1535 1536 1536 1536 1537 1537 1537 1537 1537 1537 1537 1537 1537 1537 1538
1522 1522 1523 1524 1524 1525 1525 1526 1526 1527 1527 1527 1527 1527 1527 1527 1528 1527 1528 1528 1528 1530 1530 1530 1530 1530 1531 1531 1531 1531 1531 1531 1531 1530 1531 1531 1531 1531
1518 1518 1519 1519 1520 1521 1521 1521 1522 1522 1523 1523 1522 1522 1522 1522 1523 1522 1522 1522 1523 1524 1524 1523 1524 1524 1525 1525 1525 1525 1525 1524 1524 1524 1524 1524 1524 1524
1515 1516 1516 1516 1517 1517 1517 1517 1517 1518 1518 1518 1518 1518 1518 1518 1518 1518 1518 1518 1518 1518 1519 1518 1518 1518 1519 1519 1519 1519 1519 1519 1518 1518 1518 1518 1518 1518
1514 1514 1514 1514 1514 1515 1515 1514 1514 1514 1515 1514 1514 1514 1514 1513 1513 1513 1513 1513 1512 1512 1513 1513 1512 1512 1513 1513 1513 1513 1513 1512 1512 1512 1511 1511 1511 1511
1512 1512 1512 1512 1512 1512 1512 1512 1511 1512 1512 1511 1511 1510 1510 1509 1509 1509 1509 1509 1507 1507 1507 1508 1507 1507 1507 1507 1507 1507 1507 1506 1506 1506 1505 1505 1505 1504
1510 1510 1510 1511 1511 1510 1510 1510 1510 1510 1509 1509 1508 1507 1506 1506 1506 1505 1505 1505 1504 1503 1504 1503 1503 1503 1503 1502 1501 1501 1501 1500 1500 1500 1500 1499 1499 1499
1509 1509 1509 1510 1510 1509 1509 1509 1509 1508 1507 1506 1506 1505 1504 1503 1503 1503 1502 1501 1501 1501 1500 1500 1499 1499 1498 1497 1496 1496 1496 1495 1495 1494 1494 1494 1494 1493
1509 1509 1509 1509 1509 1509 1509 1508 1508 1507 1506 1505 1504 1504 1504 1503 1502 1501 1500 1500 1499 1498 1497 1496 1496 1495 1495 1493 1492 1491 1490 1490 1490 1489 1488 1488 1487 1487
1509 1509 1509 1509 1509 1509 1509 1508 1507 1507 1506 1505 1505 1504 1503 1502 1501 1500 1499 1497 1496 1495 1494 1493 1492 1491 1490 1489 1488 1487 1486 1485 1484 1484 1483 1483 1482 1482
1510 1509 1509 1509 1509 1509 1509 1508 1508 1507 1506 1505 1504 1503 1502 1501 1500 1499 1497 1496 1494 1493 1491 1490 1489 1488 1487 1486 1485 1483 1482 1481 1481 1480 1479 1478 1478 1477
1511 1510 1510 1510 1510 1510 1509 1509 1508 1507 1506 1505 1504 1502 1501 1500 1499 1498 1496 1495 1493 1491 1489 1488 1486 1485 1484 1483 1483 1481 1480 1479 1478 1477 1475 1474 1473 1472
1512 1512 1512 1512 1512 1511 1510 1509 1508 1507 1506 1505 1503 1502 1501 1500 1498 1497 1495 1493 1492 1490 1488 1486 1485 1483 1481 1480 1479 1479 1477 1476 1474 1473 1472 1470 1469 1468
1514 1514 1514 1514 1513 1512 1511 1510 1509 1508 1506 1505 1504 1502 1501 1500 1498 1496 1494 1492 1491 1489 1487 1485 1484 1482 1480 1479 1477 1476 1475 1473 1471 1470 1468 1466 1465 1464
1516 1516 1516 1515 1514 1513 1512 1511 1509 1508 1507 1505 1504 1502 1501 1499 1498 1496 1494 1492 1490 1489 1487 1485 1483 1482 1480 1478 1476 1474 1473 1471 1469 1467 1465 1463 1461 1460
1519 1518 1517 1516 1515 1514 1513 1511 1510 1508 1507 1505 1504 1503 1501 1500 1498 1496 1494 1493 1491 1489 1487 1485 1483 1481 1479 1477 1475 1473 1471 1469 1467 1465 1464 1462 1460 1457
1521 1520 1519 1517 1516 1515 1513 1511 1510 1508 1507 1506 1504 1503 1502 1500 1498 1497 1495 1493 1491 1489 1487 1485 1482 1480 1478 1476 1474 1471 1469 1467 1465 1463 1461 1460 1459 1457